This demonstration page uses our WeatherBlox Daily Observations layout. Learn more.

Left ArrowRight Arrow

Hourly Observations for February 18, 2019

Temp ( °F °C ) Dew Point ( °F °C ) Humidity (%) Winds ( mph kmh ) Pressure ( in mb ) Visibility ( mi km ) Precip ( " mm )
12:22 am 00:22 Cloudy with Light Rain 46 7.8 46 7.8 100 100 NE 3 6 29.96 1014 7 11 0.00 0.03
12:53 am 00:53 Cloudy 46 7.8 46 7.8 100 100 NE 5 7 29.95 1014 10 16 0.00 0.03
1:01 am 01:01 Cloudy 46 7.8 46 7.8 100 100 ENE 3 6 29.97 1015 10 16 0.00 0.00
1:09 am 01:09 Cloudy 46 7.8 46 7.8 100 100 Calm 29.96 1014 10 16 0.00 0.00
1:50 am 01:50 Cloudy 46 8 46 8 100 100 Calm 29.97 1015 10 16 0.00 0.00
1:53 am 01:53 Cloudy 47 8.3 47 8.3 100 100 Calm 29.95 1014 10 16 0.00 0.00
2:53 am 02:53 Cloudy 47 8.3 47 8.3 100 100 Calm 29.97 1015 10 16 0.00 0.00
3:18 am 03:18 Cloudy with Rain 47 8.3 47 8.3 100 100 Calm 30.01 1016 3 4 0.07 1.78
3:25 am 03:25 Cloudy with Light Rain 47 8.3 47 8.3 100 100 SSE 3 6 30.01 1016 6 10 0.08 2.03
3:53 am 03:53 Cloudy 49 9.4 49 9.4 100 100 SSW 3 6 29.99 1016 9 14 0.08 2.03
4:23 am 04:23 Cloudy with Light Rain 50 10 48 8.9 93 93 WNW 13 20 30.02 1017 8 13 0.01 0.25
4:53 am 04:53 Cloudy with Light Rain 49 9.4 47 8.3 93 93 Calm 29.99 1016 10 16 0.01 0.25
5:53 am 05:53 Cloudy 47 8.3 46 7.8 97 97 WNW 9 15 30.03 1017 10 16 0.00 0.03
6:11 am 06:11 Cloudy 47 8.3 44 6.7 90 90 WNW 8 13 30.06 1018 10 16 0.00 0.00
6:53 am 06:53 Cloudy 46 7.8 44 6.7 93 93 NW 8 13 30.06 1018 10 16 0.00 0.00
7:28 am 07:28 Cloudy 46 7.8 45 7.2 96 96 NW 7 11 30.11 1020 10 16 0.00 0.00
7:53 am 07:53 Cloudy 47 8.3 44 6.7 90 90 NNW 6 9 30.11 1020 10 16 0.00 0.00
8:53 am 08:53 Cloudy 47 8.3 43 6.1 86 86 NNW 13 20 30.16 1021 10 16 0.00 0.00
9:53 am 09:53 Mostly Cloudy 48 8.9 41 5 77 77 NNW 10 17 30.20 1023 10 16 0.00 0.00
10:14 am 10:14 Partly Cloudy 49 9.4 41 5 74 74 NW 10 17 30.21 1023 10 16 0.00 0.00
10:24 am 10:24 Mostly Sunny 49 9.4 41 5 74 74 WNW 14 22 30.21 1023 10 16 0.00 0.00
10:53 am 10:53 Sunny 49 9.4 40 4.4 71 71 NW 9 15 30.22 1023 10 16 0.00 0.00
11:53 am 11:53 Sunny 53 11.7 40 4.4 61 61 NW 13 20 30.22 1024 10 16 0.00 0.00
12:53 pm 12:53 Sunny 54 12.2 38 3.3 55 55 NW 10 17 30.22 1024 10 16 0.00 0.00
1:53 pm 13:53 Sunny 56 13.3 38 3.3 51 51 NW 9 15 30.20 1023 10 16 0.00 0.00
2:53 pm 14:53 Sunny 58 14.4 28 -2.2 32 32 NNW 14 22 30.20 1023 10 16 0.00 0.00
3:53 pm 15:53 Sunny 56 13.3 27 -2.8 33 33 WNW 10 17 30.20 1023 10 16 0.00 0.00
4:53 pm 16:53 Sunny 53 11.7 25 -3.9 34 34 N 13 20 30.23 1024 10 16 0.00 0.00
5:53 pm 17:53 Sunny 51 10.6 30 -1.1 44 44 NNW 8 13 30.24 1024 10 16 0.00 0.00
6:53 pm 18:53 Clear 49 9.4 33 0.6 55 55 NNW 5 7 30.28 1025 10 16 0.00 0.00
7:53 pm 19:53 Clear 48 8.9 34 1.1 58 58 N 6 9 30.29 1026 10 16 0.00 0.00
8:53 pm 20:53 Clear 48 8.9 36 2.2 63 63 NNW 5 7 30.33 1027 10 16 0.00 0.00
9:53 pm 21:53 Clear 47 8.3 35 1.7 63 63 NNW 6 9 30.34 1028 10 16 0.00 0.00
10:53 pm 22:53 Cloudy 46 7.8 32 0 58 58 VRB 7 11 30.36 1028 10 16 0.00 0.00
11:53 pm 23:53 Mostly Cloudy 45 7.2 32 0 61 61 N 7 11 30.35 1028 10 16 0.00 0.00

Powered by AerisWeather